Weather History for KMWT - November, 2012

Change the Weather History Date:

Saturday, November 3, 2012

  Actual Average (KHOT) Record (KHOT)
Temperature  
Mean Temperature 71 °F -  
Max Temperature 82 °F 66 °F - (-1)
Min Temperature 57 °F 44 °F - (-1)
Cooling Degree Days 6    
Growing Degree Days 21 (Base 50)    
Moisture  
Dew Point 55 °F    
Average Humidity 59    
Maximum Humidity 90    
Minimum Humidity 43    
Precipitation  
Precipitation 0.00 in - - ()
Sea Level Pressure  
Sea Level Pressure 29.98 in    
Wind  
Wind Speed 4 mph (WNW)    
Max Wind Speed 9 mph    
Max Gust Speed 18 mph    
Visibility 10 miles    
Events Rain    
Averages and records for this station are not official NWS values.
T = Trace of Precipitation, MM = Missing Value Source: NWS Daily Summary

Daily Weather History Graph

Daily Weather History Graph

Search for Another Location

Airport or City:

Trip Planner

Search our weather history database for the weather conditions in past years. The results will help you decide how hot, cold, wet, or windy it might be!

Date:

Astronomy

Nov. 03, 2012 Rise Set
Actual Time 7:36 AM CDT 6:18 PM CDT
Civil Twilight 7:10 AM CDT 6:44 PM CDT
Nautical Twilight 6:40 AM CDT 7:14 PM CDT
Astronomical Twilight 6:11 AM CDT 7:43 PM CDT
Moon 10:03 PM CDT (11/3) 11:37 AM CDT (11/3)
Length of Visible Light 11h 33m
Length of Day
10h 41m
Waning Gibbous, 80% of the Moon is Illuminated
Nov 3
Waning Gibbous
Nov 6
Last Quarter
Nov 13
New
Nov 20
First Quarter
Nov 28
Full

Hourly Weather History & Observations

Time (CDT) Temp. Heat Index Dew Point Humidity Pressure Visibility Wind Dir Wind Speed Gust Speed Precip Events Conditions
12:53 AM 72.0 °F - 55.9 °F 57% 29.91 in 10.0 mi Variable 4.6 mph - N/A   Clear
1:53 AM 71.1 °F - 57.0 °F 61% 29.92 in 10.0 mi Variable 3.5 mph - N/A   Clear
2:53 AM 70.0 °F - 57.0 °F 63% 29.92 in 10.0 mi Variable 3.5 mph - N/A   Clear
3:53 AM 69.1 °F - 57.0 °F 65% 29.93 in 10.0 mi Calm Calm - N/A   Clear
4:53 AM 69.1 °F - 57.9 °F 68% 29.94 in 10.0 mi Variable 4.6 mph - N/A   Clear
5:53 AM 66.9 °F - 57.9 °F 73% 29.96 in 10.0 mi Variable 3.5 mph - N/A   Clear
6:53 AM 64.9 °F - 59.0 °F 81% 29.98 in 10.0 mi Calm Calm - N/A   Clear
7:53 AM 61.0 °F - 57.9 °F 90% 30.00 in 10.0 mi Calm Calm - N/A   Clear
8:53 AM 66.0 °F - 61.0 °F 84% 30.02 in 10.0 mi Calm Calm - N/A   Clear
9:53 AM 71.1 °F - 62.1 °F 73% 30.01 in 10.0 mi West 8.1 mph - N/A   Clear
10:53 AM 75.0 °F - 61.0 °F 62% 30.01 in 10.0 mi West 8.1 mph - N/A   Clear
11:53 AM 78.1 °F - 61.0 °F 56% 29.99 in 10.0 mi Variable 3.5 mph - N/A   Clear
12:53 PM 80.1 °F 80.7 °F 59.0 °F 48% 29.98 in 10.0 mi West 9.2 mph 18.4 mph N/A   Clear
1:53 PM 81.0 °F 81.6 °F 60.1 °F 49% 29.96 in 10.0 mi Variable 4.6 mph - N/A   Partly Cloudy
2:53 PM 80.1 °F 80.7 °F 59.0 °F 48% 29.94 in 10.0 mi WNW 8.1 mph - N/A   Mostly Cloudy
3:53 PM 78.1 °F - 57.0 °F 48% 29.94 in 10.0 mi Variable 6.9 mph - N/A   Partly Cloudy
4:53 PM 77.0 °F - 54.0 °F 45% 29.95 in 10.0 mi Variable 5.8 mph - N/A   Partly Cloudy
5:53 PM 73.0 °F - 50.0 °F 44% 29.98 in 10.0 mi NNW 4.6 mph - N/A   Mostly Cloudy
6:53 PM 69.1 °F - 46.0 °F 44% 30.01 in 10.0 mi Calm Calm - N/A   Overcast
7:53 PM 66.9 °F - 44.1 °F 44% 30.02 in 10.0 mi NW 5.8 mph - N/A   Overcast
8:53 PM 66.0 °F - 43.0 °F 43% 30.04 in 10.0 mi NW 3.5 mph - N/A   Overcast
9:53 PM 64.0 °F - 42.1 °F 45% 30.05 in 10.0 mi Variable 3.5 mph - N/A   Mostly Cloudy
10:53 PM 62.1 °F - 43.0 °F 50% 30.06 in 10.0 mi Calm Calm - N/A   Overcast
11:53 PM 57.0 °F - 48.9 °F 74% 30.08 in 10.0 mi Calm Calm - 0.00 in Rain Light Rain